Total_Precipitation_Accumulation
1.61 1.63 1.78 1.94 2.01 2.09 2.24 2.19 2.13 2.16 2.29 2.37 2.38 2.41 2.34 2.23 2.36 2.58 2.64 2.84 2.94 3.01 2.98 3.04 3.03 3.18 3.22 3.12 3.27 3.39 3.60 3.80 3.34 2.65 2.74 2.91 2.90 2.68 2.52 2.31 2.16 2.12 2.06
1.55 1.64 1.77 1.90 1.96 2.05 2.11 2.23 2.30 2.30 2.39 2.44 2.47 2.45 2.25 2.22 2.35 2.43 2.53 2.72 2.85 2.94 3.09 3.22 2.96 3.12 3.26 3.18 3.23 3.19 3.31 3.63 3.44 3.16 3.08 3.16 3.13 2.85 2.65 2.40 2.03 1.81 1.84
1.73 1.78 1.75 1.77 1.79 1.89 2.04 2.16 2.29 2.36 2.43 2.48 2.48 2.38 2.30 2.35 2.46 2.54 2.64 2.78 2.82 2.88 3.03 3.01 2.94 3.12 3.00 3.12 3.22 3.11 3.11 3.16 3.30 3.15 2.91 3.00 2.94 2.77 2.62 2.33 2.07 2.03 1.76
1.66 1.72 1.77 1.81 1.90 2.03 2.15 2.24 2.31 2.30 2.31 2.29 2.23 2.31 2.38 2.42 2.49 2.55 2.57 2.61 2.63 2.67 2.66 2.57 2.50 2.56 2.63 2.86 2.85 2.83 2.93 3.03 3.13 2.99 2.85 2.89 2.90 2.93 2.80 2.47 2.33 2.18 1.94
1.69 1.67 1.78 1.99 2.07 2.12 2.12 2.13 2.18 2.17 2.07 2.22 2.23 2.32 2.39 2.34 2.22 2.37 2.42 2.36 2.53 2.45 2.30 2.24 2.25 2.37 2.43 2.52 2.35 2.45 2.68 2.74 2.81 2.89 2.88 3.01 3.00 3.15 2.99 2.69 2.56 2.45 2.16
1.68 1.77 1.87 1.94 1.93 2.03 2.06 2.05 2.07 2.12 2.17 2.22 2.22 2.33 2.38 2.21 2.34 2.40 2.44 2.44 2.47 2.39 2.33 2.24 2.12 2.17 2.20 2.23 2.19 2.21 2.38 2.49 2.64 2.82 2.83 2.91 2.97 3.00 3.02 2.90 2.78 2.58 2.26
1.66 1.72 1.95 2.06 1.98 2.07 2.10 2.13 2.12 2.14 2.29 2.35 2.43 2.48 2.40 2.52 2.55 2.37 2.40 2.35 2.38 2.39 2.40 2.36 2.06 1.88 2.11 2.06 2.17 2.11 2.03 2.10 2.21 2.37 2.43 2.53 2.79 2.94 3.09 3.01 3.04 2.89 2.53
1.77 1.92 2.21 2.38 2.22 2.21 2.25 2.26 2.32 2.44 2.48 2.54 2.57 2.48 2.44 2.54 2.60 2.26 2.21 2.10 2.14 2.22 2.24 2.30 2.34 2.26 2.26 2.29 2.33 2.24 2.06 2.01 2.15 2.12 2.08 2.30 2.69 3.05 3.15 3.11 3.21 3.07 2.67
1.99 2.15 2.42 2.66 2.76 2.70 2.51 2.57 2.65 2.66 2.62 2.68 2.74 2.71 2.58 2.64 2.58 2.20 2.09 1.94 2.00 2.04 2.09 2.09 2.13 2.07 2.16 2.11 2.05 1.99 1.92 1.83 1.84 1.87 1.85 1.98 2.29 2.72 2.96 3.02 3.14 3.09 2.80
2.14 2.18 2.40 2.68 2.79 2.76 2.72 2.90 3.00 2.88 2.76 2.79 2.67 2.54 2.43 2.46 2.48 2.13 1.93 1.80 1.89 1.96 2.06 2.02 2.01 1.93 1.94 1.85 1.74 1.74 1.65 1.66 1.80 1.83 1.78 1.75 1.86 2.19 2.59 2.58 2.68 2.87 2.63
2.30 2.30 2.41 2.66 2.97 2.92 2.98 3.06 3.11 3.07 3.07 3.05 2.92 2.77 2.57 2.49 2.53 2.21 1.99 1.80 1.83 1.88 1.80 1.77 1.79 1.82 1.63 1.59 1.57 1.54 1.60 1.67 1.82 1.85 1.83 1.83 1.90 1.99 2.12 2.22 2.36 2.49 2.48
2.40 2.40 2.46 2.74 2.87 2.90 3.05 3.10 3.21 3.32 3.31 3.27 3.22 2.93 2.80 2.69 2.43 2.15 1.97 1.93 1.98 1.98 1.88 1.82 1.84 1.79 1.59 1.53 1.36 1.31 1.46 1.47 1.46 1.58 1.63 1.63 1.70 1.76 1.87 2.07 2.27 2.36 2.40
2.16 2.20 2.32 2.50 2.64 2.81 2.94 2.88 2.96 3.11 3.07 3.06 3.00 2.83 2.82 2.90 2.70 2.26 1.95 1.89 1.96 1.98 2.04 2.11 1.93 1.78 1.66 1.56 1.52 1.47 1.40 1.31 1.35 1.40 1.43 1.41 1.51 1.66 1.87 2.10 2.28 2.51 2.48
2.01 2.00 2.14 2.38 2.53 2.64 2.73 2.69 2.74 2.78 2.84 2.87 2.87 2.77 2.75 2.87 2.83 2.50 2.15 1.94 1.87 1.82 1.82 1.84 1.74 1.72 1.63 1.49 1.47 1.39 1.25 1.27 1.33 1.31 1.38 1.46 1.59 1.79 1.91 1.90 2.01 2.26 2.45
2.16 2.14 2.27 2.36 2.43 2.59 2.67 2.72 2.74 2.72 2.71 2.72 2.68 2.60 2.59 2.67 2.72 2.54 2.24 2.03 1.95 1.92 1.87 1.82 1.78 1.81 1.70 1.59 1.51 1.48 1.51 1.54 1.48 1.41 1.47 1.58 1.64 1.73 1.84 1.88 1.96 2.03 2.06
2.38 2.34 2.31 2.26 2.33 2.32 2.35 2.32 2.33 2.30 2.31 2.28 2.25 2.15 2.09 2.27 2.30 2.02 1.87 1.89 1.91 1.91 1.78 1.72 1.78 1.81 1.77 1.72 1.68 1.62 1.62 1.62 1.58 1.56 1.59 1.66 1.72 1.77 1.86 1.98 2.11 2.13 2.02
2.47 2.33 2.21 2.12 2.11 2.12 2.17 2.24 2.29 2.23 2.17 2.09 2.01 1.87 1.74 1.94 1.99 1.84 1.75 1.74 1.70 1.69 1.59 1.61 1.66 1.74 1.81 1.73 1.62 1.56 1.54 1.58 1.69 1.70 1.70 1.74 1.81 1.88 1.96 2.03 2.18 2.32 2.25
2.49 2.38 2.17 2.06 2.03 2.02 2.15 2.23 2.22 2.21 2.16 1.96 1.82 1.76 1.62 1.67 1.77 1.73 1.66 1.53 1.44 1.41 1.39 1.53 1.63 1.70 1.78 1.75 1.65 1.66 1.69 1.73 1.74 1.75 1.79 1.84 1.89 1.95 2.01 2.07 2.16 2.28 2.29
2.43 2.35 2.23 2.19 2.19 2.09 2.04 2.09 2.08 2.06 2.10 2.01 1.83 1.79 1.79 1.75 1.81 1.77 1.61 1.40 1.42 1.42 1.43 1.48 1.54 1.62 1.67 1.69 1.72 1.78 1.84 1.88 1.85 1.86 1.94 2.02 2.02 2.09 2.04 2.09 2.24 2.42 2.41
2.11 2.15 2.14 2.18 2.16 2.10 2.10 2.11 2.16 2.21 2.22 2.11 1.97 1.86 1.76 1.74 1.73 1.73 1.60 1.50 1.49 1.46 1.46 1.52 1.60 1.66 1.71 1.76 1.87 1.97 2.00 2.05 2.08 2.08 2.12 2.16 2.11 2.12 2.13 2.15 2.25 2.30 2.33
1.87 1.82 1.81 1.78 1.82 1.91 1.98 2.08 2.19 2.26 2.28 2.17 1.94 1.79 1.70 1.55 1.57 1.54 1.56 1.62 1.62 1.64 1.68 1.70 1.76 1.83 1.88 1.94 2.04 2.14 2.19 2.19 2.22 2.17 2.18 2.28 2.27 2.26 2.29 2.24 2.22 2.31 2.33
1.92 1.75 1.60 1.56 1.60 1.75 1.96 2.10 2.17 2.11 2.05 1.99 1.88 1.79 1.80 1.56 1.46 1.47 1.51 1.54 1.58 1.63 1.67 1.70 1.70 1.76 1.82 1.90 1.97 2.04 2.10 2.12 2.14 2.16 2.14 2.16 2.17 2.15 2.22 2.23 2.20 2.29 2.42
1.74 1.55 1.39 1.37 1.45 1.63 1.87 2.18 2.19 1.98 1.84 1.80 1.84 1.82 1.77 1.68 1.58 1.52 1.54 1.54 1.52 1.50 1.52 1.61 1.64 1.67 1.75 1.77 1.79 1.87 1.90 1.90 1.93 2.00 2.07 2.04 2.08 2.11 2.15 2.21 2.22 2.27 2.37
1.59 1.46 1.34 1.33 1.40 1.54 1.82 2.12 2.04 1.87 1.77 1.77 1.81 1.82 1.78 1.75 1.66 1.60 1.60 1.60 1.57 1.50 1.49 1.55 1.58 1.60 1.64 1.70 1.68 1.64 1.62 1.60 1.62 1.76 1.94 2.04 2.09 2.14 2.11 2.14 2.21 2.22 2.32
1.48 1.46 1.40 1.44 1.50 1.66 1.93 2.12 2.02 1.88 1.82 1.80 1.80 1.87 1.88 1.82 1.77 1.75 1.76 1.78 1.76 1.73 1.66 1.55 1.52 1.49 1.46 1.51 1.56 1.55 1.61 1.49 1.41 1.45 1.57 1.77 1.86 1.96 1.99 2.04 2.18 2.26 2.32
1.47 1.48 1.48 1.53 1.60 1.74 1.89 1.95 1.93 1.88 1.90 1.87 1.84 1.87 1.95 1.98 1.95 1.95 1.95 1.89 1.81 1.73 1.61 1.50 1.43 1.43 1.42 1.36 1.30 1.31 1.32 1.26 1.25 1.32 1.35 1.43 1.57 1.70 1.86 1.96 2.02 2.12 2.15